Weather History for Andalusia, AL

Change the Weather History Date:

Thursday, April 3, 2014

  Actual Average (KCEW) Record (KCEW)
Temperature  
Mean Temperature 75 °F -  
Max Temperature 84 °F 76 °F 90 °F (2006)
Min Temperature 66 °F 49 °F 33 °F (2004)
Cooling Degree Days 10    
Growing Degree Days 25 (Base 50)    
Moisture  
Dew Point 61 °F    
Average Humidity 69    
Maximum Humidity 88    
Minimum Humidity 37    
Precipitation  
Precipitation 0.00 in - - ()
Sea Level Pressure  
Sea Level Pressure 30.04 in    
Wind  
Wind Speed 4 mph (SW)    
Max Wind Speed 10 mph    
Max Gust Speed 22 mph    
Visibility 10 miles    
Events      
Averages and records for this station are not official NWS values.
T = Trace of Precipitation, MM = Missing Value Source: NWS Daily Summary

Daily Weather History Graph

Daily Weather History Graph

Search for Another Location

Airport:

Trip Planner

Search our weather history database for the weather conditions in past years. The results will help you decide how hot, cold, wet, or windy it might be!

Date:

Astronomy

Apr. 03, 2014 Rise Set
Actual Time 6:31 AM CDT 7:06 PM CDT
Civil Twilight 6:07 AM CDT 7:30 PM CDT
Nautical Twilight 5:38 AM CDT 7:59 PM CDT
Astronomical Twilight 5:09 AM CDT 8:28 PM CDT
Moon 9:12 AM CDT (4/3) 11:12 PM CDT (4/3)
Length of Visible Light 13h 23m
Length of Day
12h 34m
Waxing Crescent, 17% of the Moon is Illuminated
Apr 3
Waxing Crescent
Apr 7
First Quarter
Apr 15
Full
Apr 22
Last Quarter
Apr 29
New

Hourly Weather History & Observations

Time (CDT) Temp. Heat Index Dew Point Humidity Pressure Visibility Wind Dir Wind Speed Gust Speed Precip Events Conditions
12:56 AM 66.0 °F - 61.0 °F 84% 30.08 in 10.0 mi Variable 4.6 mph - N/A   Clear
1:49 AM 66.2 °F - 60.8 °F 83% 30.07 in 10.0 mi SSW 3.5 mph - N/A   Partly Cloudy
1:56 AM 66.0 °F - 61.0 °F 84% 30.06 in 9.0 mi Calm Calm - N/A   Scattered Clouds
2:12 AM 66.2 °F - 60.8 °F 83% 30.07 in 9.0 mi Calm Calm - N/A   Mostly Cloudy
2:56 AM 66.0 °F - 61.0 °F 84% 30.05 in 8.0 mi Variable 3.5 mph - N/A   Overcast
3:21 AM 66.2 °F - 62.6 °F 88% 30.05 in 7.0 mi Variable 4.6 mph - N/A   Overcast
3:56 AM 66.0 °F - 62.1 °F 87% 30.04 in 8.0 mi SSW 4.6 mph - N/A   Overcast
4:14 AM 66.2 °F - 62.6 °F 88% 30.05 in 10.0 mi Variable 5.8 mph - N/A   Overcast
4:56 AM 66.0 °F - 61.0 °F 84% 30.04 in 10.0 mi SSW 4.6 mph - N/A   Overcast
5:56 AM 66.9 °F - 61.0 °F 81% 30.05 in 10.0 mi SSW 4.6 mph - N/A   Overcast
6:56 AM 66.9 °F - 62.1 °F 84% 30.06 in 10.0 mi SW 4.6 mph - N/A   Overcast
7:56 AM 69.1 °F - 62.1 °F 78% 30.06 in 10.0 mi Variable 3.5 mph - N/A   Overcast
8:56 AM 72.0 °F - 63.0 °F 73% 30.06 in 10.0 mi Variable 4.6 mph - N/A   Mostly Cloudy
9:03 AM 73.4 °F - 62.6 °F 69% 30.08 in 10.0 mi Variable 5.8 mph - N/A   Mostly Cloudy
9:31 AM 73.4 °F - 62.6 °F 69% 30.08 in 10.0 mi SW 4.6 mph - N/A   Mostly Cloudy
9:42 AM 75.2 °F - 62.6 °F 65% 30.08 in 10.0 mi SW 8.1 mph - N/A   Scattered Clouds
9:56 AM 78.1 °F - 63.0 °F 60% 30.06 in 10.0 mi Variable 4.6 mph - N/A   Scattered Clouds
10:56 AM 82.0 °F 82.4 °F 60.1 °F 47% 30.06 in 10.0 mi WSW 9.2 mph - N/A   Mostly Cloudy
11:56 AM 82.0 °F 82.7 °F 61.0 °F 49% 30.06 in 10.0 mi Variable 5.8 mph 17.3 mph N/A   Partly Cloudy
12:56 PM 84.0 °F 82.9 °F 55.0 °F 37% 30.04 in 10.0 mi SW 9.2 mph 21.9 mph N/A   Clear
1:56 PM 84.9 °F 83.9 °F 57.0 °F 38% 30.01 in 10.0 mi WSW 9.2 mph 20.7 mph N/A   Clear
2:56 PM 84.9 °F 83.9 °F 57.0 °F 38% 29.99 in 10.0 mi SW 10.4 mph 19.6 mph N/A   Clear
3:56 PM 84.0 °F 83.3 °F 57.0 °F 40% 29.99 in 10.0 mi SSW 9.2 mph 19.6 mph N/A   Clear
4:56 PM 82.9 °F 82.6 °F 57.9 °F 42% 29.99 in 10.0 mi Variable 6.9 mph - N/A   Clear
5:56 PM 81.0 °F 81.3 °F 59.0 °F 47% 29.99 in 10.0 mi SW 8.1 mph - N/A   Clear
6:56 PM 75.9 °F - 59.0 °F 56% 30.00 in 10.0 mi SSW 4.6 mph - N/A   Clear
7:56 PM 73.0 °F - 61.0 °F 66% 30.00 in 10.0 mi Variable 4.6 mph - N/A   Clear
8:56 PM 71.1 °F - 62.1 °F 73% 30.00 in 10.0 mi SW 5.8 mph - N/A   Clear
10:56 PM 66.9 °F - 62.1 °F 84% 30.00 in 10.0 mi Calm Calm - N/A   Clear
11:36 PM 66.2 °F - 62.6 °F 88% 30.00 in 9.0 mi Calm Calm - N/A   Mostly Cloudy
11:46 PM 66.2 °F - 62.6 °F 88% 30.00 in 9.0 mi Calm Calm - N/A   Mostly Cloudy
11:56 PM 66.9 °F - 62.1 °F 84% 29.99 in 8.0 mi Variable 4.6 mph - N/A   Overcast